Regional Weather Roundup
Issued by NWS

Home | Current Version | Previous Version | Text Only | Print | Product List | Glossary On
Versions: 1 2 3 4 5 6 7 8 9 10 11 12 13 14 15 16 17 18 19 20 21 22 23 24 25 26 27 28
000
ASUS43 KDMX 211307
RWRIA

WEATHER ROUNDUP FOR IOWA
NATIONAL WEATHER SERVICE DES MOINES IA
800 AM CDT MON APR 21 2014

NOTE: "FAIR" INDICATES FEW OR NO CLOUDS BELOW 12,000 FEET WITH NO
SIGNIFICANT WEATHER AND/OR OBSTRUCTIONS TO VISIBILITY.

* - THESE STATIONS ARE NOT NWS STATIONS...THUS NOT UNDER NWS
QUALITY CONTROL.  THEY ALSO DO NOT REPORT WEATHER SUCH
AS PRECIPITATION OR FOG.

IAZ001>003-012>014-020>022-031>034-043>046-211400-
   NORTHWEST IOWA

CITY           SKY/WX    TMP DP  RH WIND       PRES   REMARKS
CARROLL *      MOSUNNY   59  57  94 NW3       29.95R FOG
CHEROKEE *     CLOUDY    57  55  94 NW5       29.97R
DENISON *      SUNNY     59  59 100 CALM      29.95R
LE MARS *      SUNNY     57  46  67 N13       30.01R
ORANGE CITY *  SUNNY     57  45  62 N6        30.01R
SHELDON *      SUNNY     55  43  62 N12       29.99R
SIOUX CITY     PTSUNNY   57  51  80 NW13      30.00R
SPENCER        CLOUDY    54  53  97 NW6       29.97R FOG
STORM LAKE *   SUNNY     57  57 100 NW10      29.97R
$$

IAZ055>058-069>071-079>083-090>094-211400-
   SOUTHWEST IOWA

CITY           SKY/WX    TMP DP  RH WIND       PRES   REMARKS
ATLANTIC *     LGT RAIN  57  57 100 SW5       29.96R
AUDUBON *      LGT RAIN  57  54  88 S3        29.96S
CLARINDA *     CLOUDY    61  57  88 CALM      29.98R
COUNCIL BLFS * CLOUDY    59  59 100 CALM      29.95S FOG
CRESTON *      CLOUDY    61  57  88 S8        29.97R
HARLAN  *      LGT RAIN  57  57 100 S7        29.98F
LAMONI         CLOUDY    60  56  86 SW13      29.97R
RED OAK *      CLOUDY    59  57  94 CALM      29.97R FOG
SHENANDOAH *   CLOUDY    59  57  94 CALM      29.98R
$$

IAZ047>049-059>061-072>074-084-211400-
   CENTRAL IOWA

CITY           SKY/WX    TMP DP  RH WIND       PRES   REMARKS
AMES           CLOUDY    58  55  90 SW3       29.95R
ANKENY *       PTSUNNY   63  59  88 CALM      29.95R
CHARITON *     LGT RAIN  61  59  94 SW8       29.96S
DES MOINES     CLOUDY    63  56  78 S6        29.95R
GRINNELL*      CLOUDY    59  57  94 SW8       29.96R
KNOXVILLE *    CLOUDY    61  59  94 SE5       29.96S FOG
MARSHALLTOWN   CLOUDY    59  54  83 SW5       29.94R
NEWTON *       CLOUDY    61  59  94 S7        29.96R
PELLA *        RAIN      61  59  94 S7        29.97S
PERRY *          N/A     59  52  77 CALM      29.96R
$$

IAZ004>006-015-016-023>025-035-036-211400-
   NORTH CENTRAL IOWA

CITY           SKY/WX    TMP DP  RH WIND       PRES   REMARKS
ALGONA *       MOSUNNY   59  55  88 W13       29.94R
CLARION *      MOSUNNY   57  57 100 NW6G12    29.93R
ESTHERVILLE    CLOUDY    57  57 100 W3        29.95R
FORT DODGE *   CLOUDY    57  55  94 S6        29.94R
MASON CITY     CLOUDY    58  57  97 N5        29.97R
FOREST CITY *  CLOUDY    57  57 100 CALM      29.95R FOG
IOWA FALLS *   HVY RAIN  57  54  88 S18       29.90F
$$

IAZ007>011-017>019-026>030-037>042-050>054-066-211400-
   NORTHEAST IOWA

CITY           SKY/WX    TMP DP  RH WIND       PRES   REMARKS
CEDAR RAPIDS   LGT RAIN  60  57  89 W10       29.92F
CHARLES CITY * LGT RAIN  55  55 100 N10       29.96R
CLINTON *      CLOUDY    57  46  67 SW8       29.98S
DECORAH *      CLOUDY    55  55 100 N7        29.94R FOG
DUBUQUE        CLOUDY    56  52  86 SW8       29.94R THUNDER
MONTICELLO *   PTSUNNY   61  54  77 W6        29.92F
OELWEIN *      PTSUNNY  N/A N/A N/A CALM      29.94S FOG
WATERLOO       CLOUDY    56  55  97 MISG      29.93R FOG
$$

IAZ064-065-067-068-078-211400-
   EAST CENTRAL IOWA

CITY           SKY/WX    TMP DP  RH WIND       PRES   REMARKS
DAVENPORT      CLOUDY    62  49  62 SW8       29.94S
IOWA CITY      CLOUDY    62  59  90 SW3       29.95R
MT. PLEASANT * CLOUDY    63  54  72 SW3       29.96S
MUSCATINE *    CLOUDY    63  54  72 SW8       29.95S
QUAD CITIES    CLOUDY    63  49  60 W7        29.94R
$$

IAZ062-063-075>077-085>089-095>099-211400-
   SOUTHEAST IOWA

CITY           SKY/WX    TMP DP  RH WIND       PRES   REMARKS
BURLINGTON     CLOUDY    60  52  74 SW6       29.96S
FAIRFIELD *    CLOUDY    63  55  77 SW6       29.97R
FORT MADISON * SUNNY     63  54  72 SW6       29.98S
KEOKUK *       CLOUDY    63  54  72 SW6       29.98R
OSKALOOSA *    CLOUDY    61  59  94 W6        29.97S
CENTERVILLE *  MOSUNNY   59  59 100 SW7       29.98S
OTTUMWA        LGT RAIN  61  57  87 SW5       29.96R
WASHINGTON *   MOSUNNY   63  57  82 SW9       29.96R
$$

ABBREVIATIONS USED IN REMARKS
   TC - TEMPERATURES IN CELSIUS
  WCI - WIND CHILL INDEX
   HX - HEAT INDEX
  VSB - VISIBILITY
$$




USA.gov is the U.S. government's official web portal to all federal, state and local government web resources and services.